Home > Weather > Anaheim > Past weeks

Flag for U.S.A. Weather for the Past 2 Weeks in Anaheim, California, U.S.A.

Now
67 °F

Sunny.


Feels Like: 67 °F
Forecast: 49 / 85 °F
Wind: No wind

Location: Fullerton Municipal Airport

Current Time: Feb 14, 2016 at 11:22:58 AM

Latest Report: Feb 14, 2016 at 10:53 AM


Visibility: 4 mi

Pressure: 30.03 "Hg

Humidity: 59%

Dew point: 52 °F

Location of AnaheimLocation

Historic Weather in Anaheim — Graph

°F

Anaheim Temperature Yesterday

Maximum temperature yesterday: 72 °F (at 12:53 PM)
Minimum temperature yesterday: 50 °F (at 5:53 AM)
Average temperature yesterday: 60 °F

High & Low Weather Summary for the Past Weeks

 TemperatureHumidityPressure
High92 °F (Feb 9, 1:53 PM)96% (Feb 14, 5:53 AM)30.35 "Hg (Feb 14, 5:53 AM)
Low36 °F (Feb 2, 5:53 AM)8% (Feb 7, 2:53 PM)29.61 "Hg (Jan 31, 2:00 PM)
Average62 °F43%30.10 "Hg
* Reported Jan 30 9:53 AM — Feb 14 9:53 AM, Anaheim, Weather by CustomWeather, © 2016

Note: Actual official high and low records may vary slightly from our data, if they occured in-between our weather recording intervals... More about our weather records

Advertising

Anaheim Weather History for the Previous 24 Hours

 ConditionsComfort  
Time TempWeatherWind HumidityBarometerVisibility
9:53 AM
Sun, Feb 14
62 °FSunny.No wind73%30.05 "Hg3 mi
9:01 AM53 °FFog.No wind96%30.06 "Hg1 mi
8:53 AM53 °FFog.No wind96%30.05 "Hg1 mi
7:53 AM51 °FFog.No wind96%30.06 "Hg0 mi
6:53 AM51 °FFog.No wind96%30.05 "Hg0 mi
5:53 AM50 °FFog.No wind96%30.03 "Hg0 mi
4:53 AM49 °FCool.No wind86%30.03 "HgN/A
3:53 AM51 °FClear.No wind80%30.02 "Hg5 mi
2:53 AM50 °FClear.5 mph83%30.03 "Hg4 mi
1:53 AM52 °FFog.No wind86%30.05 "Hg4 mi
12:53 AM53 °FFog.No wind86%30.05 "Hg4 mi
11:53 PM
Sat, Feb 13
54 °FFog.No wind86%30.05 "Hg4 mi
10:53 PM56 °FClear.No wind81%30.05 "Hg4 mi
9:53 PM58 °FClear.No wind81%30.06 "Hg4 mi
8:53 PM59 °FClear.No wind84%30.04 "Hg5 mi
7:53 PM60 °FClear.No wind78%30.03 "Hg5 mi
6:53 PM63 °FClear.No wind70%30.04 "Hg6 mi
5:53 PM66 °FClear.No wind61%30.01 "Hg7 mi
4:53 PM68 °FSunny.No wind57%30.01 "Hg6 mi
3:53 PM67 °FSunny.5 mph61%30.02 "Hg5 mi
2:53 PM69 °FSunny.6 mph55%30.02 "Hg5 mi
1:53 PM69 °FSunny.5 mph47%30.03 "Hg6 mi
12:53 PM72 °FSunny.6 mph48%30.03 "Hg6 mi
11:53 AM71 °FSunny.6 mph45%30.04 "Hg7 mi
Weather by CustomWeather, © 2016

See weather overviewHow to use our weather pages